Regional Weather Roundup
Issued by NWS

Home | Current Version | Previous Version | Text Only | Print | Product List | Glossary Off
Versions: 1 2 3 4 5 6 7 8 9 10 11 12 13 14 15 16 17 18 19 20 21 22 23 24 25 26 27 28 29 30 31 32 33 34 35 36 37 38 39 40 41 42 43 44 45 46 47 48 49 50

000
ASUS43 KFSD 270302
RWRSD

WEATHER ROUNDUP FOR SOUTH DAKOTA
NATIONAL WEATHER SERVICE SIOUX FALLS SD
1000 PM CDT TUE AUG 26 2014

NOTE: "FAIR" INDICATES FEW OR NO CLOUDS BELOW 12,000 FEET WITH NO
SIGNIFICANT WEATHER AND/OR OBSTRUCTIONS TO VISIBILITY.


SDZ001>005-009-010-012>017-270400-
NORTHWEST AND NORTH CENTRAL SOUTH DAKOTA

CITY           SKY/WX    TMP DP  RH WIND       PRES   REMARKS
BUFFALO          N/A     57  54  89 E10       30.09R
FAITH            N/A     60  54  80 E8        30.14R
MOBRIDGE       MOCLDY    58  55  90 NE7       30.14R
$$

SDZ012>016-024>037-041>051-057-063-072>074-270400-
SOUTHWEST AND SOUTH CENTRAL SOUTH DAKOTA

CITY           SKY/WX    TMP DP  RH WIND       PRES   REMARKS
RAPID CTY ARPT PTCLDY    65  56  72 E9        30.15R
PIERRE         CLEAR     61  56  83 E8        30.12R
CUSTER         CLOUDY    60  55  83 E7        30.26R
ELLSWORTH AFB  CLEAR     65  56  73 E6        30.15R
PHILIP         CLEAR     66  55  67 NE12      30.11R
PINE RIDGE     TSTM      59  59 100 MISG      30.13F
WINNER         FAIR      67  58  72 E12       30.12R
$$

SDZ004>011-016>023-039-040-270400-
NORTHEAST SOUTH DAKOTA

CITY           SKY/WX    TMP DP  RH WIND       PRES   REMARKS
ABERDEEN       CLOUDY    59  56  89 CALM      30.17R
WATERTOWN      PTCLDY    58  54  86 E5        30.18R
SISSETON         N/A     61  57  87 CALM      30.17R
$$

SDZ017-020-022-023-036>040-048>070-270400-
SOUTHEAST SOUTH DAKOTA

CITY           SKY/WX    TMP DP  RH WIND       PRES   REMARKS
SIOUX FALLS    PTCLDY    66  57  72 SE8       30.16R
HURON          CLOUDY    61  57  87 NE8       30.14R
CHAMBERLAIN    CLEAR     62  57  85 E6        30.14R
MITCHELL       CLEAR     63  59  87 E6        30.15R
YANKTON        CLEAR     64  61  88 E5        30.14S
$$

ABBREVIATIONS USED IN REMARKS
   TC - TEMPERATURE IN CELSIUS
  WCI - WIND CHILL INDEX
   HX - HEAT INDEX
  VSB - VISIBILITY




USA.gov is the U.S. government's official web portal to all federal, state and local government web resources and services.